Location: Bussy-Saint-Georges
(48.8410°N, 2.7017°E)
Time: 02:45:57
(UTC+00:00)

Cosmos 2082 - Pass Details

Date: 18 October 2021
Orbit: 835 x 853 km, 71.0° (Epoch: 30 November)

Event Time Altitude Azimuth Distance (km) Brightness Sun altitude
Rises 17:38:20 0° 331° (NNW) 3,397 7.2 -8.1°
Reaches altitude 10° 17:40:47 10° 330° (NNW) 2,458 6.5 -8.5°
Maximum altitude 17:46:25 79° 245° (WSW) 855 3.9 -9.4°
Drops below altitude 10° 17:52:01 10° 159° (SSE) 2,442 5.9 -10.3°
Sets 17:54:27 0° 158° (SSE) 3,374 6.6 -10.7°
